Flag for Australia Weather past 2 weeks in Canberra, Australian Capital Territory, Australia

Now
59 °F

Overcast.


Feels Like: 58 °F
Forecast: 55 / 86 °F
Wind: 7 mph from East

Location: Canberra Airport

Current Time: Dec 21, 2014 at 1:48:14 AM

Latest Report: Dec 21, 2014 at 1:00 AM


Visibility: N/A

Pressure: 30.09 "Hg

Humidity: 82%

Dew point: 54 °F

Location of CanberraLocation

Historic Weather in Canberra — Graph

°F

Canberra temperature yesterday

Maximum temperature yesterday: 81 °F (at 6:00 PM)
Minimum temperature yesterday: 52 °F (at 5:53 AM)
Average temperature yesterday: 64 °F

Past Weeks' High & Low Weather Summary

 TemperatureHumidityPressure
High90 °F (Dec 16, 1:30 PM)100% (Dec 6, 2:00 PM)30.12 "Hg (Dec 6, 2:00 PM)
Low45 °F (Dec 14, 5:30 AM)10% (Dec 16, 6:00 PM)29.47 "Hg (Dec 16, 1:30 PM)
Average66 °F63%29.86 "Hg
* Reported Midnight between Dec 5 and Dec 6 — Dec 21 12:30 AM, Canberra, Weather by CustomWeather, © 2014

Note: Actual official high and low records may vary slightly from our data, if they occured in-between our weather recording intervals... More about our weather records

Advertising

Canberra weather history for previous 24 hours

 ConditionsComfort  
Time TempWeatherWind HumidityBarometerVisibility
12:30 AM
Dec 21
59 °FPassing clouds.10 mph82%30.09 "HgN/A
12:00 AM59 °FPassing clouds.5 mph82%30.09 "HgN/A
11:00 PM
Dec 20
61 °FPassing clouds.6 mph77%30.09 "HgN/A
10:00 PM63 °FPassing clouds.6 mph73%30.07 "HgN/A
9:00 PM64 °FClear.6 mph73%30.04 "HgN/A
8:30 PM66 °FPassing clouds.8 mph68%30.01 "HgN/A
8:00 PM68 °FScattered clouds.17 mph64%30.01 "HgN/A
7:30 PM70 °FOvercast.20 mph60%29.98 "HgN/A
7:00 PM73 °FMostly cloudy.17 mph53%29.98 "HgN/A
6:00 PM81 °FSunny.6 mph34%29.95 "Hg10 mi
5:30 PM79 °FSunny.6 mph30%29.95 "Hg10 mi
5:00 PM79 °FSunny.7 mph34%29.95 "Hg10 mi
4:00 PM79 °FSunny.6 mph32%29.95 "Hg10 mi
3:30 PM77 °FSunny.6 mph34%29.98 "Hg10 mi
3:00 PM77 °FSunny.6 mph36%29.98 "Hg10 mi
2:30 PM77 °FSunny.7 mph36%29.98 "Hg10 mi
2:00 PM75 °FPassing clouds.7 mph39%30.01 "HgN/A
1:30 PM77 °FPassing clouds.8 mph39%30.01 "HgN/A
1:00 PM75 °FPassing clouds.7 mph44%30.01 "HgN/A
12:30 PM72 °FPassing clouds.5 mph44%30.04 "HgN/A
12:00 PM70 °FPassing clouds.8 mph50%30.04 "HgN/A
11:00 AM66 °FPassing clouds.6 mph56%30.07 "HgN/A
10:30 AM64 °FPassing clouds.5 mph56%30.07 "HgN/A
10:00 AM63 °FScattered clouds.6 mph59%30.07 "HgN/A
9:30 AM61 °FScattered clouds.6 mph63%30.07 "HgN/A
9:00 AM59 °FPartly sunny.6 mph68%30.07 "HgN/A
8:00 AM57 °FPartly sunny.5 mph72%30.07 "HgN/A
7:00 AM54 °FScattered clouds.3 mph88%30.07 "HgN/A
6:00 AM52 °FPartly sunny.5 mph88%30.07 "HgN/A
5:53 AM52 °FPartly sunny.5 mph82%30.07 "HgN/A
5:00 AM54 °FMostly cloudy.5 mph82%30.04 "HgN/A
4:30 AM55 °FMostly cloudy.3 mph77%30.04 "HgN/A
4:00 AM55 °FMostly cloudy.5 mph77%30.04 "HgN/A
3:30 AM55 °FMostly cloudy.6 mph77%30.04 "HgN/A
3:00 AM55 °FMostly cloudy.8 mph77%30.04 "HgN/A
2:30 AM55 °FMostly cloudy.6 mph77%30.04 "HgN/A
2:00 AM55 °FMostly cloudy.5 mph77%30.07 "HgN/A
1:30 AM55 °FMostly cloudy.5 mph77%30.07 "HgN/A
1:00 AM55 °FOvercast.2 mph77%30.07 "HgN/A
Weather by CustomWeather, © 2014

See weather overviewHow to use our weather pages